Orbital Elements at Epoch 2459200.5 (2020-Dec-17.0) TDB
Reference: JPL 15 (heliocentric ecliptic J2000)
Element | Value | Uncertainty (1-sigma) | Units |
e | .1770027676140578 | 5.7277e-08 | |
a | 3.100621641213517 | 3.1356e-08 | au |
q | 2.551803029394683 | 1.6699e-07 | au |
i | 15.20322758777155 | 5.7082e-06 | deg |
node | 257.6863595682473 | 1.9113e-05 | deg |
peri | 248.3835991645349 | 2.3198e-05 | deg |
M | 175.4022309246375 | 1.5694e-05 | deg |
tp | 2458228.862652333108 (2018-Apr-20.36265233) | 8.1952e-05 | TDB |
period | 1994.21320536322 5.46 | 3.0251e-05 8.282e-08 | d yr |
n | .1805223228047127 | 2.7384e-09 | deg/d |
Q | 3.649440253032352 | 3.6906e-08 | au |
|
| | Orbit Determination Parameters
Additional Information
|